User: anonymous   Login
Location: Unspecified
(0.0000°N, 0.0000°E)
Time: 09:31:37
(UTC+00:00)
Language:

Ayame 2 - Orbit

View from above orbital plane
View from above orbital plane
View from above satellite
View from above satellite

Ground track
Ground track

The orbit data is extracted from the following two-line orbital elements,

1 11715U 80018A   17295.13564487 -.00000117  00000-0  00000+0 0  9993
2 11715   8.5873 303.5605 4421642 151.2193 299.8415  1.75493806179553
Epoch (UTC): 22 October 2017 03:15:19
Eccentricity: 0.4421642
inclination: 8.5873°
perigee height: 9817 km
apogee height: 35492 km
right ascension of ascending node: 303.5605°
argument of perigee: 151.2193°
revolutions per day: 1.75493806
mean anomaly at epoch: 299.8415°
orbit number at epoch: 17955

The dashed part of the orbit path shows where the satellite is in the earth's shadow,  

DLR